Location: Bergfeld
(52.0500°N, 11.7833°E)
Time: 16:38:46
(UTC+00:00)

FENGYUN 3A - Pass Details

Date: 17 February 2020
Orbit: 824 x 836 km, 98.4° (Epoch: 06 April)

Event Time Altitude Azimuth Distance (km) Brightness Sun altitude
Rises 04:47:40 0° 14° (NNE) 3,398 7.0 -15.6°
Reaches altitude 10° 04:50:02 10° 14° (NNE) 2,460 6.3 -15.2°
Maximum altitude 04:55:31 84° 287° (WNW) 849 3.6 -14.4°
Drops below altitude 10° 05:00:57 10° 200° (SSW) 2,445 5.9 -13.5°
Sets 05:03:18 0° 200° (SSW) 3,375 6.7 -13.2°
